This demonstration page uses our WeatherBlox Daily Observations layout. Learn more.

Left ArrowRight Arrow

Hourly Observations for August 31, 2018

Temp ( °F °C ) Dew Point ( °F °C ) Humidity (%) Winds ( mph kmh ) Pressure ( in mb ) Visibility ( mi km ) Precip ( " mm )
12:15 am 00:15 Mostly Cloudy 77 25 73 23 89 89 Calm 30.15 1021 10 16.0934 0 0
12:35 am 00:35 Cloudy 77 25 73 23 89 89 SE 3 6 30.15 1021 10 16.0934 0 0
12:55 am 00:55 Cloudy 79 26 73 23 84 84 SSE 12 19 30.15 1021 10 16.0934 0 0
1:15 am 01:15 Cloudy with Light Rain 73 23 73 23 100 100 SE 6 9 30.15 1021 10 16.0934 0 0
1:35 am 01:35 Cloudy with Light Rain 72 22 72 22 100 100 SE 8 13 30.12 1020 10 16.0934 0.03 0.762
1:55 am 01:55 Cloudy with Heavy Rain 72 22 72 22 100 100 ENE 5 7 30.12 1020 7 11.26538 0.05 1.27
2:15 am 02:15 Mostly Cloudy with Light Rain 72 22 72 22 100 100 Calm 30.12 1020 10 16.0934 0.01 0.254
2:35 am 02:35 Partly Cloudy 72 22 72 22 100 100 W 3 6 30.12 1020 10 16.0934 0.01 0.254
2:55 am 02:55 Partly Cloudy with Light Rain 70 21 70 21 100 100 Calm 30.12 1020 10 16.0934 0.01 0.254
3:15 am 03:15 Clear 70 21 70 21 100 100 N 5 7 30.12 1020 10 16.0934 0 0
3:35 am 03:35 Mostly Cloudy 70 21 70 21 100 100 Calm 30.12 1020 10 16.0934 0 0
3:55 am 03:55 Mostly Cloudy 70 21 70 21 100 100 Calm 30.12 1020 10 16.0934 0 0
4:15 am 04:15 Partly Cloudy 70 21 70 21 100 100 Calm 30.12 1020 10 16.0934 0 0
4:35 am 04:35 Partly Cloudy 70 21 70 21 100 100 WSW 3 6 30.15 1021 7 11.26538 0 0
4:55 am 04:55 Cloudy 68 20 68 20 100 100 Calm 30.15 1021 10 16.0934 0 0
5:15 am 05:15 Mostly Cloudy 68 20 68 20 100 100 Calm 30.15 1021 10 16.0934 0 0
5:35 am 05:35 Mostly Cloudy 68 20 68 20 100 100 Calm 30.15 1021 10 16.0934 0 0
5:55 am 05:55 Cloudy 68 20 68 20 100 100 Calm 30.15 1021 10 16.0934 0 0
6:15 am 06:15 Cloudy 68 20 68 20 100 100 N 3 6 30.15 1021 10 16.0934 0 0
6:55 am 06:55 Cloudy 70 21 70 21 100 100 Calm 30.15 1021 10 16.0934 0 0
7:15 am 07:15 Partly Cloudy 70 21 70 21 100 100 Calm 30.15 1021 10 16.0934 0 0
7:35 am 07:35 Sunny 70 21 70 21 100 100 Calm 30.15 1021 10 16.0934 0 0
7:55 am 07:55 Partly Cloudy 70 21 70 21 100 100 N 5 7 30.18 1022 10 16.0934 0 0
8:15 am 08:15 Partly Cloudy 70 21 70 21 100 100 NNE 5 7 30.18 1022 10 16.0934 0 0
8:35 am 08:35 Sunny 72 22 72 22 100 100 NNE 5 7 30.18 1022 10 16.0934 0 0
8:55 am 08:55 Partly Cloudy 73 23 72 22 94 94 NNE 5 7 30.18 1022 10 16.0934 0 0
9:15 am 09:15 Sunny 73 23 72 22 94 94 NNE 5 7 30.18 1022 10 16.0934 0 0
9:35 am 09:35 Partly Cloudy 75 24 72 22 89 89 ENE 7 11 30.18 1022 10 16.0934 0 0
9:55 am 09:55 Sunny 77 25 72 22 83 83 NE 3 6 30.18 1022 10 16.0934 0 0
10:15 am 10:15 Sunny 77 25 72 22 83 83 Calm 30.18 1022 10 16.0934 0 0
10:35 am 10:35 Partly Cloudy 79 26 72 22 79 79 NE 5 7 30.18 1022 10 16.0934 0 0
10:55 am 10:55 Partly Cloudy 81 27 72 22 74 74 ESE 5 7 30.18 1022 10 16.0934 0 0
11:15 am 11:15 Partly Cloudy 81 27 73 23 79 79 NNE 5 7 30.18 1022 10 16.0934 0 0
11:35 am 11:35 Mostly Cloudy 81 27 73 23 79 79 Calm 30.18 1022 10 16.0934 0 0
11:55 am 11:55 Cloudy 82 28 73 23 74 74 Calm 30.18 1022 10 16.0934 0 0
12:15 pm 12:15 Cloudy 82 28 73 23 74 74 ESE 3 6 30.18 1022 10 16.0934 0 0
12:35 pm 12:35 Mostly Cloudy 82 28 73 23 74 74 Calm 30.18 1022 10 16.0934 0 0
12:55 pm 12:55 Partly Cloudy 82 28 73 23 74 74 ESE 3 6 30.15 1021 10 16.0934 0 0
1:15 pm 13:15 Partly Cloudy 86 30 73 23 66 66 SSW 5 7 30.15 1021 10 16.0934 0 0
1:35 pm 13:35 Partly Cloudy 86 30 75 24 70 70 W 3 6 30.15 1021 10 16.0934 0 0
1:55 pm 13:55 Partly Cloudy 88 31 73 23 62 62 WSW 3 6 30.15 1021 10 16.0934 0 0
2:15 pm 14:15 Partly Cloudy 88 31 75 24 66 66 E 8 13 30.15 1021 10 16.0934 0 0
2:35 pm 14:35 Mostly Cloudy 86 30 75 24 70 70 NNE 7 11 30.15 1021 10 16.0934 0 0
2:55 pm 14:55 Mostly Cloudy 86 30 75 24 70 70 ENE 6 9 30.15 1021 10 16.0934 0 0
3:15 pm 15:15 Partly Cloudy 82 28 75 24 79 79 E 13 20 30.15 1021 10 16.0934 0 0
3:35 pm 15:35 Partly Cloudy 86 30 77 25 75 75 ENE 8 13 30.15 1021 10 16.0934 0 0
3:55 pm 15:55 Sunny 86 30 75 24 70 70 ENE 6 9 30.15 1021 10 16.0934 0 0
4:15 pm 16:15 Partly Cloudy 84 29 75 24 74 74 E 6 9 30.15 1021 10 16.0934 0 0
4:35 pm 16:35 Partly Cloudy 86 30 73 23 66 66 E 6 9 30.15 1021 10 16.0934 0 0
4:55 pm 16:55 Partly Cloudy 86 30 73 23 66 66 ESE 6 9 30.12 1020 10 16.0934 0 0
5:15 pm 17:15 Partly Cloudy 86 30 75 24 70 70 E 5 7 30.12 1020 10 16.0934 0 0
5:35 pm 17:35 Partly Cloudy 86 30 73 23 66 66 ENE 6 9 30.12 1020 10 16.0934 0 0
5:55 pm 17:55 Mostly Cloudy 84 29 73 23 70 70 E 6 9 30.12 1020 10 16.0934 0 0
6:15 pm 18:15 Mostly Cloudy 86 30 73 23 66 66 ENE 6 9 30.12 1020 10 16.0934 0 0
6:35 pm 18:35 Mostly Cloudy 84 29 73 23 70 70 ENE 7 11 30.12 1020 10 16.0934 0 0
6:55 pm 18:55 Mostly Cloudy 82 28 73 23 74 74 NE 6 9 30.15 1021 10 16.0934 0 0
7:15 pm 19:15 Mostly Cloudy 82 28 73 23 74 74 ENE 7 11 30.15 1021 10 16.0934 0 0
7:35 pm 19:35 Partly Cloudy 81 27 75 24 84 84 NE 6 9 30.15 1021 10 16.0934 0 0
7:55 pm 19:55 Mostly Cloudy 81 27 75 24 84 84 NE 5 7 30.15 1021 10 16.0934 0 0
8:15 pm 20:15 Cloudy 81 27 77 25 89 89 NE 5 7 30.15 1021 10 16.0934 0 0
8:35 pm 20:35 Mostly Cloudy 79 26 73 23 84 84 NE 9 15 30.18 1022 10 16.0934 0 0
8:55 pm 20:55 Cloudy with Nearby Thunderstorms 77 25 73 23 89 89 ESE 8 13 30.18 1022 10 16.0934 0.01 0.254
9:15 pm 21:15 Cloudy with Heavy Thunderstorms 73 23 72 22 94 94 ENE 9 15 30.21 1023 1.75 2.816345 0.1 2.54
9:35 pm 21:35 Cloudy 70 21 70 21 100 100 ENE 13 20 30.21 1023 3 4.82802 0.22 5.588
9:55 pm 21:55 Cloudy with Light Thunderstorms 70 21 70 21 100 100 E 9 15 30.21 1023 7 11.26538 0.36 9.144
10:15 pm 22:15 Mostly Cloudy 70 21 70 21 100 100 ENE 7 11 30.21 1023 10 16.0934 0.09 2.286
10:35 pm 22:35 Partly Cloudy 70 21 70 21 100 100 ENE 7 11 30.21 1023 10 16.0934 0.16 4.064
10:55 pm 22:55 Partly Cloudy 70 21 70 21 100 100 NE 5 7 30.21 1023 10 16.0934 0.2 5.08
11:15 pm 23:15 Clear 70 21 70 21 100 100 ENE 3 6 30.21 1023 10 16.0934 0 0
11:35 pm 23:35 Partly Cloudy 70 21 70 21 100 100 N 3 6 30.21 1023 10 16.0934 0 0
11:55 pm 23:55 Mostly Cloudy 68 20 68 20 100 100 Calm 30.21 1023 10 16.0934 0 0

Powered by AerisWeather